Delta Virtual Airport Information Service

Washington Ronald Reagan National Airport

ICAO: KDCA Country: United States
Latitude: 38.8521 Longitude: -77.0377
Latest Arrival : DAC1043 (KMSP-KDCA) Latest Departure : DAL1167 (1B) (KDCA-KDTW)


WX CaptureLIVE
Data provided by noaa.gov | Fetched at 11:18:49

METAR : KDCA 151552Z 34012G19KT 10SM SCT036 26/14 A2984 RMK AO2 SLP106 T02560144

TAF : KDCA 151504Z 1515/1618 32010KT P6SM FEW030 FEW250 FM151700 32012G20KT P6SM SCT050 FM160000 32008KT P6SM SCT050


Runway Data for KDCA
Data provided by openaviationdata.com

Runway ID Mag Var Hdg Length Elevation Surface ILS Freq ILS Id ILS Slope
1 -10 6875 ft 15 ft Asphalt 109.9 IDCA 3
4 -10 35° 4914 ft 15 ft Asphalt -- -- --
15 -10 152° 5190 ft 15 ft Asphalt -- -- --
19 -10 185° 6875 ft 15 ft Asphalt 109.9 0
22 -10 215° 4914 ft 15 ft Asphalt -- -- --
33 -10 332° 5190 ft 15 ft Asphalt -- -- --

Washington Ronald Reagan National Airport, United States
Use only for reference purposes



Not for navigational purposes.